Regional Weather Roundup
Issued by NWS

Home | Current Version | Previous Version | Graphics & Text | Print | Product List | Glossary On
Versions: 1 2 3 4 5 6 7 8 9 10 11 12 13 14 15 16 17 18 19 20 21 22 23 24 25 26 27
000
ASUS45 KTFX 300610
RWRMT
MONTANA REGIONAL WEATHER ROUNDUP
NATIONAL WEATHER SERVICE GREAT FALLS MT
1200 AM MDT MON MAY 30 2016

NOTE: "FAIR" INDICATES FEW OR NO CLOUDS BELOW 12000 FEET WITH NO
SIGNIFICANT WEATHER AND/OR OBSTRUCTIONS TO VISIBILITY.

MTZ001>007-043-300700-
WEST OF THE DIVIDE

CITY           SKY/WX    TMP DP  RH WIND       PRES   REMARKS
KALISPELL      LGT RAIN  54  43  66 N7        29.97R
MISSOULA       PTCLDY    50  45  83 CALM      30.04R
BUTTE          CLOUDY    49  38  65 NW9       30.07R
MULLAN PASS    CLOUDY    45  32  60 VRB7      30.07S
ANACONDA         N/A     48  39  71 CALM      30.06R
DEER LODGE       N/A     50  45  81 CALM      30.06R
EUREKA           N/A     48  45  87 CALM      30.05R
HAMILTON         N/A     52  45  76 CALM      30.04F
LIBBY            N/A     54  39  58 NW12G18   30.02R
$$

MTZ008-052>055-300700-
SOUTHWEST MONTANA

CITY           SKY/WX    TMP DP  RH WIND       PRES   REMARKS
BOZEMAN        CLOUDY    54  41  61 NW8       29.99R
DILLON         MOCLDY    54  36  50 N3        30.01R
W YELLOWSTONE  CLOUDY    48  39  71 SW8       30.10S
ENNIS          CLOUDY    54  37  54 VRB5      30.06S
$$

MTZ009-010-012-014-046-048-049-054-300700-
EAST SLOPES AND CENTRAL MONTANA

CITY           SKY/WX    TMP DP  RH WIND       PRES   REMARKS
CUT BANK       CLEAR     48  39  71 W8        29.94S
GREAT FALLS    CLOUDY    50  42  74 SW5       29.97S
MALMSTROM AFB  CLOUDY    52  44  76 W2        29.96F
HELENA         MOCLDY    56  42  59 NW9       30.01R
CHOTEAU          N/A     52  45  76 SW9       29.98S
$$

MTZ011-013-016-021-045-047-050-051-300700-
NORTH CENTRAL MONTANA

CITY           SKY/WX    TMP DP  RH WIND       PRES   REMARKS
HAVRE          PTCLDY    52  45  77 E3        29.90F
LEWISTOWN      MOCLDY    54  43  66 NW3       29.98S
N BAR RANCH      N/A     50  41  71 SW5       30.00F
CHINOOK          N/A     52  46  82 E3        29.91S
$$

MTZ017>020-022>027-061-062-300700-
NORTHEAST MONTANA

CITY           SKY/WX    TMP DP  RH WIND       PRES   REMARKS
GLASGOW        PTCLDY    58  44  60 E6        29.90S
JORDAN           N/A     51  45  79 CALM      29.92F
SIDNEY         CLEAR     54  43  66 N6        29.93S
WOLF POINT     CLEAR     49  41  74 CALM      29.91F
POPLAR           N/A     54  43  66 N5        29.92S
$$

MTZ028>42-056>058-300700-
SOUTHCENTRAL AND SOUTHEAST MONTANA

CITY           SKY/WX    TMP DP  RH WIND       PRES   REMARKS
BAKER          CLEAR     50  42  74 SE7       29.97F
BILLINGS       TSTM      61  48  62 NW18      29.92R
LIVINGSTON     CLOUDY    59  37  44 CALM      29.95F
MILES CITY     CLOUDY    61  45  55 N8        29.90F
FORSYTH          N/A     63  46  55 NE8       29.89F
$$

REGIONAL REPORTS...DAKOTAS

CITY           SKY/WX    TMP DP  RH WIND       PRES   REMARKS
WILLISTON      PTCLDY    47  42  83 CALM      29.92F
MINOT          CLEAR     57  47  69 SW7       29.92S
DICKINSON      CLEAR     52  46  80 S10       29.94F
BEACH          MOCLDY    46  45  93 S6        29.98S
CROSBY           N/A     50  48  93 S7        29.93F
WATFORD CITY     N/A     48  45  87 W5        29.94S
BISMARCK       CLEAR     56  50  80 SE6       29.96S
GRAND FORKS    CLEAR     52  47  83 SW5       29.91S
FARGO          CLEAR     59  48  67 SE5       29.94R
BUFFALO SD       N/A     57  47  69 SE5       29.91F
RAPID CITY     CLEAR     55  52  89 N8        29.97F
$$

REGIONAL REPORTS...WYOMING/IDAHO/WASHINGTON

CITY           SKY/WX    TMP DP  RH WIND       PRES   REMARKS
GILLETTE       CLOUDY    58  45  62 SE9       29.96F
SHERIDAN       MOCLDY    54  46  74 CALM      29.92F
BUFFALO WY     CLOUDY    62  38  40 W3        29.99F
CODY           CLOUDY    57  37  47 CALM      29.97F
YELLOWSTONE LA   N/A     42  38  85 CALM      30.19F
IDAHO FALLS    PTCLDY    58  42  55 S9        30.03F
SALMON         CLOUDY    55  36  47 S6        30.00R
BOISE          PTCLDY    65  36  34 NW8       29.99R
SPOKANE        PTCLDY    52  36  54 N8        30.06R
$$

REGIONAL REPORTS...ALBERTA

CITY           SKY/WX    TMP DP  RH WIND       PRES   REMARKS
EDMONTON       CLOUDY    48  43  81 NW9       29.99R
CALGARY        SHOWER    43  39  87 N21G28    29.99S
LETHBRIDGE     LGT RAIN  48  45  87 NW18      29.94R
MEDICINE HAT   CLOUDY    52  45  76 W12G18    29.87R
WATERTON GATE    N/A     46  39  76 W10         N/A
MILK RIVER       N/A     48  39  71 W8          N/A
$$

REGIONAL REPORTS...SASKATCHEWAN

CITY           SKY/WX    TMP DP  RH WIND       PRES   REMARKS
SWIFT CURRENT  CLEAR     52  45  76 SW9       29.86F
REGINA         CLEAR     48  43  81 SE5       29.88S
SASKATOON      CLEAR     50  50 100 NE9       29.90S
CYPRESS HILLS    N/A     48  36  61 SW5         N/A
VAL MARIE        N/A     52  43  71 S6          N/A
ROCKGLEN         N/A     54  41  62 S5          N/A
$$




USA.gov is the U.S. government's official web portal to all federal, state and local government web resources and services.